Alma, MI

4:50 PM EDT on September 18, 2019 (GMT -0400)
Gratiot Community

Weather History for KAMN - August, 2019

Change the Weather History Date:

Sunday, August 25, 2019

  Actual Average Record
Temperature  
Mean Temperature 62 °F -  
Max Temperature 76 °F 80 °F 95 °F (1948)
Min Temperature 47 °F 55 °F 41 °F (2017)
Degree Days  
Heating Degree Days 4    
Growing Degree Days 12 (Base 50)    
Moisture  
Dew Point 52 °F    
Average Humidity 70    
Maximum Humidity 96    
Minimum Humidity 42    
Precipitation  
Precipitation 0.00 in - - ()
Sea Level Pressure  
Sea Level Pressure 30.20 in    
Wind  
Wind Speed 4 mph (East)    
Max Wind Speed 13 mph    
Max Gust Speed 18 mph    
Visibility 9 miles    
Events Fog    
Averages and records for this station are not official NWS values.
T = Trace of Precipitation, MM = Missing Value Source: NWS Daily Summary

Daily Weather History Graph

Daily Weather History Graph

Search for Another Location

Airport or City:

Astronomy

Aug. 25, 2019 Rise Set
Actual Time 6:54 AM EDT 8:26 PM EDT
Civil Twilight 6:24 AM EDT 8:55 PM EDT
Nautical Twilight 5:48 AM EDT 9:32 PM EDT
Astronomical Twilight 5:09 AM EDT 10:10 PM EDT
Moon 1:24 AM EDT (8/25) 4:52 PM EDT (8/25)
Length of Visible Light 14h 31m
Length of Day
13h 31m
Waning Crescent, 29% of the Moon is Illuminated
Aug 25
Waning Crescent
Aug 30
New
Sep 5
First Quarter
Sep 14
Full
Sep 21
Last Quarter

Hourly Weather History & Observations

Time (EDT) Temp. Dew Point Humidity Pressure Visibility Wind Dir Wind Speed Gust Speed Precip Events Conditions
12:19 AM 56.7 °F 51.3 °F 82% 30.29 in 10.0 mi ENE 3.5 mph - N/A   Clear
12:37 AM 54.7 °F 49.8 °F 84% 30.28 in 10.0 mi ENE 4.6 mph - N/A   Clear
12:55 AM 54.0 °F 50.4 °F 88% 30.28 in 10.0 mi East 4.6 mph - N/A   Clear
12:56 AM 54.0 °F 50.4 °F 88% 30.28 in 10.0 mi East 3.5 mph - N/A   Clear
1:15 AM 53.4 °F 50.0 °F 88% 30.29 in 10.0 mi Calm Calm - N/A   Clear
1:16 AM 53.6 °F 50.2 °F 88% 30.29 in 10.0 mi Calm Calm - N/A   Clear
1:35 AM 53.4 °F 50.2 °F 89% 30.28 in 10.0 mi East 3.5 mph - N/A   Clear
1:40 AM 53.8 °F 50.5 °F 89% 30.28 in 10.0 mi ESE 3.5 mph - N/A   Clear
1:58 AM 55.4 °F 51.3 °F 86% 30.27 in 10.0 mi East 3.5 mph - N/A   Clear
2:16 AM 54.7 °F 51.3 °F 88% 30.27 in 10.0 mi East 3.5 mph - N/A   Clear
2:35 AM 51.8 °F 48.7 °F 89% 30.27 in 10.0 mi Calm Calm - N/A   Clear
2:36 AM 51.8 °F 48.7 °F 89% 30.27 in 10.0 mi Calm Calm - N/A   Clear
2:55 AM 50.9 °F 48.4 °F 91% 30.27 in 10.0 mi Calm Calm - N/A   Clear
2:56 AM 50.7 °F 48.2 °F 91% 30.27 in 10.0 mi Calm Calm - N/A   Clear
3:19 AM 50.5 °F 48.6 °F 93% 30.27 in 7.0 mi Calm Calm - N/A   Clear
3:37 AM 49.1 °F 47.3 °F 93% 30.27 in 4.0 mi Calm Calm - N/A   Scattered Clouds
3:55 AM 49.3 °F 47.7 °F 94% 30.27 in 0.2 mi Calm Calm - N/A Fog Fog
4:15 AM 48.7 °F 46.9 °F 93% 30.26 in 0.5 mi Calm Calm - N/A Fog Fog
4:35 AM 47.8 °F 46.4 °F 95% 30.26 in 0.5 mi Calm Calm - N/A Fog Fog
4:40 AM 49.1 °F 48.0 °F 96% 30.26 in 2.0 mi Calm Calm - N/A   Scattered Clouds
4:58 AM 49.1 °F 47.7 °F 95% 30.26 in 0.8 mi Calm Calm - N/A   Mostly Cloudy
5:16 AM 49.1 °F 47.8 °F 95% 30.26 in 1.0 mi Calm Calm - N/A   Mostly Cloudy
5:35 AM 48.6 °F 47.3 °F 95% 30.25 in 1.2 mi Calm Calm - N/A   Scattered Clouds
5:55 AM 47.3 °F 46.0 °F 95% 30.24 in 1.5 mi Calm Calm - N/A   Mist
5:56 AM 47.5 °F 46.2 °F 95% 30.24 in 1.5 mi Calm Calm - N/A   Mist
6:19 AM 48.4 °F 47.1 °F 95% 30.24 in 0.5 mi Calm Calm - N/A Fog Fog
6:37 AM 48.2 °F 46.8 °F 95% 30.25 in 0.8 mi NE 3.5 mph - N/A   Mist
6:55 AM 49.5 °F 48.2 °F 95% 30.25 in 7.0 mi Calm Calm - N/A   Clear
7:15 AM 48.6 °F 47.3 °F 95% 30.25 in 3.0 mi Calm Calm - N/A   Clear
7:35 AM 48.4 °F 47.3 °F 96% 30.26 in 4.0 mi Calm Calm - N/A   Clear
7:40 AM 49.1 °F 48.0 °F 96% 30.26 in 4.0 mi Calm Calm - N/A   Clear
7:58 AM 53.8 °F 52.7 °F 96% 30.26 in 10.0 mi Calm Calm - N/A   Clear
8:16 AM 55.4 °F 54.1 °F 96% 30.26 in 10.0 mi Calm Calm - N/A   Clear
8:35 AM 56.8 °F 55.4 °F 95% 30.26 in 10.0 mi NE 4.6 mph - N/A   Clear
8:36 AM 56.8 °F 55.4 °F 95% 30.26 in 10.0 mi NE 3.5 mph - N/A   Clear
8:55 AM 58.5 °F 56.7 °F 94% 30.26 in 10.0 mi East 5.8 mph - N/A   Scattered Clouds
8:56 AM 58.6 °F 56.7 °F 93% 30.26 in 10.0 mi ENE 6.9 mph - N/A   Scattered Clouds
9:19 AM 61.0 °F 57.4 °F 88% 30.26 in 10.0 mi East 5.8 mph - N/A   Mostly Cloudy
9:37 AM 63.5 °F 55.8 °F 76% 30.26 in 10.0 mi East 8.1 mph - N/A   Mostly Cloudy
9:55 AM 67.1 °F 56.7 °F 69% 30.25 in 10.0 mi East 5.8 mph - N/A   Mostly Cloudy
10:15 AM 67.8 °F 56.7 °F 67% 30.26 in 10.0 mi East 9.2 mph - N/A   Clear
10:16 AM 67.8 °F 56.7 °F 67% 30.26 in 10.0 mi East 8.1 mph - N/A   Clear
10:35 AM 69.1 °F 57.0 °F 65% 30.25 in 10.0 mi ESE 11.5 mph 16.1 mph N/A   Clear
10:40 AM 70.0 °F 57.0 °F 63% 30.25 in 10.0 mi East 10.4 mph 16.1 mph N/A   Clear
10:58 AM 70.7 °F 57.0 °F 62% 30.25 in 10.0 mi East 11.5 mph - N/A   Clear
11:16 AM 71.8 °F 56.5 °F 58% 30.24 in 10.0 mi ESE 9.2 mph - N/A   Clear
11:35 AM 72.0 °F 56.1 °F 57% 30.24 in 10.0 mi East 10.4 mph - N/A   Scattered Clouds
11:55 AM 71.4 °F 56.5 °F 59% 30.23 in 10.0 mi East 9.2 mph 18.4 mph N/A   Mostly Cloudy
11:56 AM 71.8 °F 56.1 °F 58% 30.23 in 10.0 mi East 10.4 mph 18.4 mph N/A   Mostly Cloudy
12:19 PM 74.3 °F 53.8 °F 49% 30.22 in 10.0 mi ESE 9.2 mph - N/A   Mostly Cloudy
12:37 PM 72.5 °F 54.5 °F 53% 30.22 in 10.0 mi East 6.9 mph - N/A   Mostly Cloudy
12:56 PM 72.3 °F 54.9 °F 54% 30.22 in 10.0 mi East 9.2 mph - N/A   Overcast
1:15 PM 73.6 °F 54.7 °F 51% 30.21 in 10.0 mi East 11.5 mph 16.1 mph N/A   Overcast
1:16 PM 73.4 °F 54.5 °F 51% 30.21 in 10.0 mi East 11.5 mph 16.1 mph N/A   Overcast
1:35 PM 73.6 °F 53.8 °F 50% 30.20 in 10.0 mi East 11.5 mph 17.3 mph N/A   Mostly Cloudy
1:40 PM 73.8 °F 53.1 °F 48% 30.20 in 10.0 mi East 10.4 mph 17.3 mph N/A   Mostly Cloudy
1:58 PM 73.6 °F 53.8 °F 50% 30.20 in 10.0 mi East 11.5 mph 18.4 mph N/A   Mostly Cloudy
2:16 PM 75.2 °F 52.3 °F 45% 30.19 in 10.0 mi East 12.7 mph 17.3 mph N/A   Mostly Cloudy
2:55 PM 74.7 °F 52.0 °F 45% 30.18 in 10.0 mi East 10.4 mph - N/A   Overcast
3:19 PM 74.5 °F 52.0 °F 45% 30.17 in 10.0 mi East 10.4 mph - N/A   Overcast
3:37 PM 73.4 °F 52.3 °F 48% 30.17 in 10.0 mi East 9.2 mph - N/A   Overcast
3:55 PM 74.1 °F 51.4 °F 45% 30.16 in 10.0 mi East 10.4 mph - N/A   Mostly Cloudy
4:15 PM 76.3 °F 51.4 °F 42% 30.16 in 10.0 mi ESE 11.5 mph 17.3 mph N/A   Mostly Cloudy
4:35 PM 74.5 °F 51.4 °F 44% 30.15 in 10.0 mi East 8.1 mph 17.3 mph N/A   Scattered Clouds
4:40 PM 75.0 °F 51.6 °F 44% 30.15 in 10.0 mi ENE 9.2 mph 18.4 mph N/A   Scattered Clouds
4:58 PM 74.7 °F 51.6 °F 44% 30.14 in 10.0 mi East 9.2 mph - N/A   Mostly Cloudy
5:16 PM 73.4 °F 52.0 °F 47% 30.14 in 10.0 mi East 8.1 mph - N/A   Mostly Cloudy
5:35 PM 75.2 °F 52.0 °F 44% 30.12 in 10.0 mi East 10.4 mph - N/A   Mostly Cloudy
5:36 PM 75.2 °F 52.2 °F 44% 30.12 in 10.0 mi East 10.4 mph 16.1 mph N/A   Scattered Clouds
5:55 PM 74.1 °F 52.5 °F 47% 30.12 in 10.0 mi East 9.2 mph - N/A   Scattered Clouds
5:56 PM 74.1 °F 52.7 °F 47% 30.12 in 10.0 mi East 9.2 mph - N/A   Scattered Clouds
6:19 PM 74.7 °F 51.8 °F 45% 30.11 in 10.0 mi East 11.5 mph 18.4 mph N/A   Scattered Clouds
6:37 PM 73.4 °F 52.3 °F 48% 30.11 in 10.0 mi East 9.2 mph - N/A   Scattered Clouds
6:55 PM 72.5 °F 52.3 °F 49% 30.11 in 10.0 mi East 12.7 mph 18.4 mph N/A   Clear
7:15 PM 71.8 °F 53.8 °F 53% 30.11 in 10.0 mi East 8.1 mph - N/A   Clear
7:16 PM 71.6 °F 53.8 °F 53% 30.11 in 10.0 mi East 9.2 mph - N/A   Clear
7:35 PM 70.9 °F 53.6 °F 54% 30.11 in 10.0 mi East 5.8 mph - N/A   Clear
7:40 PM 70.5 °F 54.0 °F 56% 30.11 in 10.0 mi East 3.5 mph - N/A   Clear
7:58 PM 69.3 °F 54.7 °F 60% 30.10 in 10.0 mi East 3.5 mph - N/A   Clear
8:35 PM 66.0 °F 55.0 °F 68% 30.11 in 10.0 mi East 3.5 mph - N/A   Clear
8:55 PM 66.2 °F 54.0 °F 65% 30.11 in 10.0 mi East 4.6 mph - N/A   Clear
8:56 PM 66.2 °F 53.8 °F 64% 30.11 in 10.0 mi ESE 3.5 mph - N/A   Clear
9:19 PM 65.7 °F 53.1 °F 64% 30.11 in 10.0 mi ESE 5.8 mph - N/A   Clear
9:37 PM 66.2 °F 52.2 °F 61% 30.12 in 10.0 mi ESE 8.1 mph - N/A   Clear
9:55 PM 65.5 °F 51.3 °F 60% 30.13 in 10.0 mi SE 4.6 mph - N/A   Clear
10:15 PM 64.4 °F 51.3 °F 62% 30.13 in 10.0 mi ESE 5.8 mph - N/A   Clear
10:35 PM 64.4 °F 50.9 °F 62% 30.12 in 10.0 mi ESE 8.1 mph - N/A   Clear
10:40 PM 64.6 °F 50.9 °F 61% 30.12 in 10.0 mi ESE 8.1 mph - N/A   Clear
10:58 PM 64.4 °F 50.9 °F 62% 30.11 in 10.0 mi ESE 6.9 mph - N/A   Clear
11:16 PM 64.4 °F 50.4 °F 60% 30.11 in 10.0 mi ESE 6.9 mph - N/A   Clear
11:35 PM 64.4 °F 50.4 °F 60% 30.11 in 10.0 mi ESE 6.9 mph - N/A   Clear
11:36 PM 64.4 °F 50.4 °F 60% 30.11 in 10.0 mi ESE 6.9 mph - N/A   Clear
11:55 PM 63.7 °F 50.5 °F 62% 30.11 in 10.0 mi ESE 4.6 mph - N/A   Clear
11:56 PM 63.7 °F 50.5 °F 62% 30.11 in 10.0 mi ESE 4.6 mph - N/A   Clear